Tracking 29511 objects as of 15-Sep-2024
HD Live streaming from Space Station
objects crossing your sky now

FENGYUN 1C DEB

Track FENGYUN 1C DEB now!
10-day predictions


NORAD ID: 31988
Int'l Code: 1999-025CPR
Perigee: 803.5 km
Apogee: 902.8 km
Inclination: 98.2 °
Period: 101.8 minutes
Semi major axis: 7224 km
RCS: 0.0166 m2 (small)
Launch date: May 10, 1999
Source: People's Republic of China (PRC)
Launch site: Taiyaun Space Center, China (TSC)

Note: This is SATELLITE DEBRIS
Your satellite tracking list
Your tracking list is empty




NASA's NSSDC Master Catalog

Two Line Element Set (TLE):
1 31988U 99025CPR 24245.51158032  .00012528  00000-0  64680-2 0  9990
2 31988  98.1514 347.1560 0068739 211.1801 148.5287 14.13910238575310
Source of the keplerian elements: AFSPC